Location: Palermo
(38.1170°N, 13.3670°E)
Time: 22:38:18
(UTC+01:00)

ISS - Visible Passes

Search period start: 18 January 2019 00:00
Search period end: 28 January 2019 00:00
Orbit: 404 x 410 km, 51.6° (Epoch: 18 January)

Date Brightness Start Highest point End Pass type
(mag) Time Alt. Az. Time Alt. Az. Time Alt. Az.
19 Jan -1.3 18:50:10 10° S 18:50:48 13° SSE 18:50:48 13° SSE visible
20 Jan -1.1 19:33:53 10° SW 19:34:50 18° SW 19:34:50 18° SW visible
21 Jan -3.4 18:42:43 10° SSW 18:45:51 43° SE 18:46:01 43° SE visible
22 Jan -2.2 17:52:01 10° S 17:54:37 22° SE 17:57:08 11° E visible
22 Jan -1.7 19:27:56 10° WSW 19:29:52 27° WNW 19:29:52 27° WNW visible
23 Jan -3.6 18:36:17 10° WSW 18:39:33 66° NW 18:40:53 32° NE visible
24 Jan -3.6 17:44:56 10° SW 17:48:10 61° SE 17:51:26 10° ENE visible
24 Jan -1.4 19:22:32 10° WNW 19:24:32 18° NW 19:24:32 18° NW visible
25 Jan -2.2 18:30:28 10° W 18:33:22 28° NNW 18:35:23 16° NNE visible
26 Jan -1.0 19:17:40 10° NW 19:18:52 12° NNW 19:18:52 12° NNW visible
27 Jan -1.4 18:25:09 10° WNW 18:27:18 16° NNW 18:29:27 10° NNE visible
